Location: Adavinekkalam
(16.6301°N, 80.7229°E)
Time: 04:35:58
(UTC+00:00)

CZ-4B DEB - Pass Details

Date: 15 May 2026
Orbit: 833 x 854 km, 98.9° (Epoch: 6 June)

Event Time Altitude Azimuth Distance (km) Brightness Sun altitude
Exits shadow 14:55:43 62° 73° (ENE) 953 4.2 -25.7°
Drops below altitude 10° 15:01:06 10° 356° (N) 2,479 7.0 -26.8°
Sets 15:03:29 0° 353° (N) 3,416 7.9 -27.3°
